This is the latest recevied weather packets stored in our database for station/object HB9BTL-13. If no packets are shown the sender has not sent any weather packets the latest 10 day(s).
| Time | Temp. | Humidity | Pressure | Rain* | Wind** | Luminosity | Snow |
|---|---|---|---|---|---|---|---|
| 1777354404 | 12.22° C | 68% | 1016.3 hPa | - | - | - | - |
| 1777353498 | 11.67° C | 72% | 1016.2 hPa | - | - | - | - |
| 1777352593 | 11.67° C | 71% | 1016.1 hPa | - | - | - | - |
| 1777351688 | 11.11° C | 71% | 1016 hPa | - | - | - | - |
| 1777350783 | 11.67° C | 66% | 1015.8 hPa | - | - | - | - |
| 1777349878 | 12.22° C | 65% | 1015.7 hPa | - | - | - | - |
| 1777348972 | 12.22° C | 65% | 1015.8 hPa | - | - | - | - |
| 1777348067 | 12.22° C | 65% | 1015.9 hPa | - | - | - | - |
| 1777347161 | 12.22° C | 63% | 1016.1 hPa | - | - | - | - |
| 1777346255 | 12.22° C | 64% | 1016 hPa | - | - | - | - |
| 1777345350 | 12.78° C | 62% | 1016.1 hPa | - | - | - | - |
| 1777343539 | 12.78° C | 60% | 1016.1 hPa | - | - | - | - |
| 1777342634 | 13.33° C | 59% | 1016.2 hPa | - | - | - | - |
| 1777341729 | 13.89° C | 57% | 1016.3 hPa | - | - | - | - |
| 1777340824 | 13.89° C | 55% | 1016.4 hPa | - | - | - | - |
| 1777339918 | 13.89° C | 55% | 1016.4 hPa | - | - | - | - |
| 1777339013 | 15° C | 52% | 1016.4 hPa | - | - | - | - |
| 1777338107 | 15.56° C | 49% | 1016.4 hPa | - | - | - | - |
| 1777337202 | 16.11° C | 45% | 1016.3 hPa | - | - | - | - |
| 1777336296 | 16.67° C | 42% | 1016.4 hPa | - | - | - | - |
| 1777335391 | 16.67° C | 43% | 1016.5 hPa | - | - | - | - |
| 1777329054 | 17.78° C | 45% | 1016.4 hPa | - | - | - | - |
| 1777328148 | 17.78° C | 45% | 1016.5 hPa | - | - | - | - |
| 1777312756 | 19.44° C | 44% | 1016.6 hPa | - | - | - | - |
| 1777310945 | 20.56° C | 42% | 1016.6 hPa | - | - | - | - |
* Rain since midnight (hover to see other rain measurements)
** Current wind speed in m/s (hover to see current wind gust speed)